Location: Aurora High School
(35.3057°N, 76.7935°W)
Time: 06:11:23
(UTC+00:00)

Daily predictions for brighter satellites

Satellite Brightness Start Highest point End
(mag) Time Altitude Azimuth Time Altitude Azimuth Time Altitude Azimuth
Cosmos 2333 Rocket 2.5 22:43:23 10° NNW 22:49:06 77° WSW 22:54:44 10° SSE
Cosmos 1340 Rocket 2.8 22:48:47 10° N 22:52:43 59° E 22:56:39 10° SSE
Shenzhou-11 Module 2.1 22:53:04 10° WSW 22:55:42 52° NNW 22:58:20 10° NE
Cosmos 1825 Rocket 3.9 22:52:53 10° SSE 22:57:01 44° E 23:01:09 10° NNE
H-2A R/B 3.9 22:54:42 10° S 22:58:24 50° W 23:02:10 10° NNW
Cosmos 1048 Rocket 4.3 22:54:12 10° NNW 22:59:18 71° WSW 23:04:22 10° S
Cosmos 962 Rocket 4.4 22:55:39 10° S 23:01:42 72° E 23:07:50 10° N
NOSS 0 Rocket 3.9 22:55:30 10° NNW 23:01:42 69° ENE 23:07:50 10° SSE
Cosmos 1269 Rocket 4.2 22:57:41 10° N 23:02:48 49° ENE 23:07:54 10° SE
CORIOLIS 4.5 22:57:33 10° S 23:02:55 74° WSW 23:08:17 10° NNW
SL-16 R/B 3.5 23:01:09 10° NNE 23:04:55 18° NE 23:08:39 10° E
Cosmos 2219 3.6 23:00:11 10° SSW 23:05:44 67° WNW 23:11:22 10° NNE
Meteor 1-21 Rocket 4.2 23:01:40 10° S 23:07:11 71° E 23:12:50 10° NNE
Cosmos 2082 4.1 23:02:43 10° S 23:08:00 44° ESE 23:13:18 10° NE
ADEOS Rocket 4.2 23:03:29 10° NE 23:09:12 27° E 23:15:17 10° SSE
Nadezhda 3 Rocket 4.4 23:10:20 10° N 23:16:37 71° W 23:22:54 10° S
Cosmos 2297 Rocket 2.4 23:11:48 10° SSW 23:17:26 78° WNW 23:23:07 10° NNE
CZ-4C R/B 3.1 23:10:30 10° NNW 23:18:07 88° WSW 23:26:34 10° SSE
Cosmos 1939 Rocket 3.8 23:16:05 10° SE 23:19:19 25° ENE 23:22:35 10° NNE
FengYun 1-2 T 4.2 23:14:19 10° SSE 23:19:54 77° ENE 23:25:34 10° N
SKYMED 2 3.7 23:17:06 10° N 23:21:26 77° WNW 23:25:46 10° SSW
USA 116 3.4 23:19:02 10° NNE 23:22:03 45° E 23:25:02 10° S
Cosmos 1980 3.6 23:19:46 10° NNW 23:25:29 78° ENE 23:31:09 10° SSE
Cosmos 1703 3.5 23:23:13 10° SSE 23:27:00 47° E 23:30:49 10° NNE
FALCON 9 R/B 4.2 23:03:58 10° SW 23:27:16 43° SSE 23:33:12 15° E
Cosmos 494 Rocket 4.3 23:22:41 10° NNW 23:27:46 71° WSW 23:32:51 10° S
Ariane Rocket 4.2 23:24:27 10° ESE 23:28:03 20° ENE 23:31:40 10° NNE
SL-8 R/B 4.4 23:24:04 10° WSW 23:28:42 47° NNW 23:32:26 15° NE
Cosmos 2227 Rocket 2.5 23:24:22 10° SSW 23:29:59 68° WNW 23:35:38 10° NNE
SL-8 Rocket 4.0 23:24:35 10° S 23:30:53 82° E 23:37:12 10° N
NOAA 11 4.3 23:26:26 10° SSE 23:31:43 51° ENE 23:37:02 10° N
Cosmos 2219 Rocket 4.2 23:27:37 10° NW 23:32:36 32° WSW 23:37:32 10° SSW
YAOGAN 1 2.5 23:29:59 10° SSE 23:34:13 58° ENE 23:38:28 10° N
Cosmos-2242 2.9 23:33:37 10° N 23:37:56 77° E 23:42:11 10° S
ISS -1.9 23:35:09 10° W 23:38:01 25° NW 23:40:05 15° NNE
H-2A ROCKET BODY 3.1 23:33:59 10° W 23:43:04 38° SSW 23:45:31 16° SE
Cosmos 44 3.6 23:38:58 10° SW 23:43:34 59° WNW 23:47:34 13° NNE
Meteor 2-10 Rocket 3.4 23:44:29 10° N 23:49:46 75° E 23:54:49 10° SSE
CZ-4 R/B 1.8 23:47:10 10° S 23:51:07 63° W 23:55:12 10° NNW
